Back to catalog

STARLINK-30246

AliveCommunicationsVLEO
NORAD 57615·PAYLOAD·🇺🇸 United States

Launched Aug 11, 2023 from Cape Canaveral Space Force Station

Loading…

Next Passes (next 24 hours)

TLE

FreshSource: CelesTrak SupGP

Epoch: Sep 14, 2026, 21:02 UTC

1 57615C 23119P   26257.87687500  .00069425  00000+0  21575-2 0  2577
2 57615  42.9992  91.7014 0008385 263.7738 204.4925 15.32452123    18

Track STARLINK-30246 in real time with AllMySat

Download on the App Store